Regional Weather Roundup
Issued by NWS

Home | Current Version | Previous Version | Graphics & Text | Print | Product List | Glossary Off
Versions: 1 2 3 4 5 6 7 8 9 10 11 12 13 14 15 16 17 18 19 20 21 22 23 24 25 26 27 28 29 30 31 32 33 34 35 36 37 38 39 40 41 42 43 44 45 46 47 48 49 50

766
ASUS43 KIND 241809
RWRIN

WEATHER ROUNDUP FOR INDIANA
NATIONAL WEATHER SERVICE INDIANAPOLIS IN
200 PM EDT SAT JUN 24 2017

NOTE: "FAIR" INDICATES FEW OR NO CLOUDS BELOW 12,000 FEET WITH NO
SIGNIFICANT WEATHER AND/OR OBSTRUCTIONS TO VISIBILITY.

* - STATION DOES NOT REPORT WEATHER SUCH AS PRECIPITATION OR FOG.

+ - STATION NOT QUALITY CONTROLLED BY THE NATIONAL WEATHER SERVICE.
    USE DATA WITH CAUTION...ESPECIALLY DEWPOINT AND RELATIVE
    HUMIDITY OBSERVATIONS.

INZ001>003-010>013-019-020-241900-
NORTHWEST INDIANA

CITY           SKY/WX    TMP DP  RH WIND       PRES   REMARKS
GARY /AIRPORT/ MOSUNNY   75  43  31 W14G30    29.99S
KNOX *+        MOSUNNY   73  43  33 W18G24    29.98S
LA PORTE +     MOSUNNY   73  55  53 W9G25     29.99S
6HR MIN TEMP:  64; 6HR MAX TEMP:  73;

MICHIGAN CITY+ MOSUNNY   72  52  49 W10G20    29.99S
MONTICELLO +   MOSUNNY   73  55  54 W13G18    30.00S
6HR MIN TEMP:  62; 6HR MAX TEMP:  73;

VALPARAISO     MOSUNNY   75  50  41 W18G25    29.99S
6HR MIN TEMP:  64; 6HR MAX TEMP:  76;


$$

LMZ046-743>745-241900-
SOUTHERN LAKE MICHIGAN

STATION/POSITION TIME  TEMP    WIND        PRES    WAVE
                       AIR SEA DIR/SP/G            HT
                 (UTC) (F)     (DEG/KT/KT) (MB)    (FT)
BURNS HARBOR     1740   69     280/ 11/ 13 1015.6S
MICHIGAN CITY    1740   67     260/ 11/ 12   N/A
5NW MICH CITY    1750   67 68  280/  8/ 10   N/A     2

$$

INZ004-005-014>016-021>024-241900-
NORTH CENTRAL INDIANA

CITY           SKY/WX    TMP DP  RH WIND       PRES   REMARKS
ELKHART        MOSUNNY   70  54  56 NW10      29.98R
GOSHEN         PTSUNNY   73  53  49 W14G25    29.97R
6HR MIN TEMP:  63; 6HR MAX TEMP:  74;

LOGANSPORT +   MOSUNNY   72  57  60 W14G21    30.00F
PERU/GRISSOM   MOSUNNY   73  57  56 W17       29.98S
6HR MIN TEMP:  63; 6HR MAX TEMP:  74;

ROCHESTER +    MOSUNNY   75  54  46 W15G21    29.98S
SOUTH BEND     PTSUNNY   70  54  56 NW18G25   29.98S
6HR MIN TEMP:  64; 6HR MAX TEMP:  72;

WARSAW +         N/A     72  54  53 W16G22    29.97S

$$

INZ006>009-017-018-025>027-241900-
NORTHEAST INDIANA

CITY           SKY/WX    TMP DP  RH WIND       PRES   REMARKS
AUBURN +       MOSUNNY   73  54  49 W8G17     29.96S
FORT WAYNE     PTSUNNY   75  57  53 W16       29.97R
6HR MIN TEMP:  65; 6HR MAX TEMP:  75;

HUNTINGTON +   MOSUNNY   74  58  56 W10G24    29.97S
6HR MIN TEMP:  63; 6HR MAX TEMP:  74;

KENDALLVILLE + CLOUDY    71  55  57 NW9       29.96S

$$

INZ028-029-035-036-043>045-051>053-241900-
WEST CENTRAL INDIANA

CITY           SKY/WX    TMP DP  RH WIND       PRES   REMARKS
CRAWFORDSVL +  PTSUNNY   70  56  61 W16       30.03S
6HR MIN TEMP:  60; 6HR MAX TEMP:  71;

GREENCASTLE +  PTSUNNY   73  55  53 W8G18     30.05R
LAFAYETTE      MOSUNNY   71  57  61 W17       30.01S
6HR MIN TEMP:  62; 6HR MAX TEMP:  72;

TERRE HAUTE    PTSUNNY   74  55  51 NW12G18   30.05R
6HR MIN TEMP:  65; 6HR MAX TEMP:  76;


$$

INZ030>032-037>040-046>048-054>057-064-065-241900-
CENTRAL INDIANA

CITY           SKY/WX    TMP DP  RH WIND       PRES   REMARKS
CP ATTERBURY + MOSUNNY   73  55  53 NW13      30.03S
COLUMBUS       MOSUNNY   75  57  53 W10G17    30.02S
FISHERS *+     PTSUNNY   73  61  64 W14G20    30.02
FRANKFORT +    PTSUNNY   77  60  54 W15G21    30.03S
6HR MIN TEMP:  64; 6HR MAX TEMP:  77;

GREENWOOD *+   MOSUNNY   75  55  50 W15G21    30.03R
INDIANAPOLIS   MOSUNNY   75  56  51 W12       30.02R
6HR MIN TEMP:  64; 6HR MAX TEMP:  75;

-EAGLE CREEK   PTSUNNY   75  56  51 VRB7G18   30.02R
6HR MIN TEMP:  64; 6HR MAX TEMP:  75;

KOKOMO +       PTSUNNY   72  58  61 W18       30.01S
6HR MIN TEMP:  63; 6HR MAX TEMP:  73;

MARION +       MOSUNNY   73  57  56 W15G23    30.00S
MT COMFORT *+  MOSUNNY   75  55  50 W16G22    30.02S
SHELBYVILLE    MOSUNNY   77  56  48 W13       30.01S
6HR MIN TEMP:  65; 6HR MAX TEMP:  77;

ZIONSVILLE +   MOSUNNY   73  58  58 W15G22    30.03S
6HR MIN TEMP:  62; 6HR MAX TEMP:  73;


$$

INZ033-034-041-042-049-050-058-059-241900-
EAST CENTRAL INDIANA

CITY           SKY/WX    TMP DP  RH WIND       PRES   REMARKS
MUNCIE         MOSUNNY   75  57  53 W15G23    29.99F
6HR MIN TEMP:  65; 6HR MAX TEMP:  77;

RICHMOND +     MOSUNNY   72  59  64 W15G21    30.02R

$$

INZ060-061-067>069-081>083-085>088-241900-
SOUTHWEST INDIANA

CITY           SKY/WX    TMP DP  RH WIND       PRES   REMARKS
EVANSVILLE     MOSUNNY   78  57  48 W8        30.08S
6HR MIN TEMP:  65; 6HR MAX TEMP:  78;

HUNTINGBURG *+ MOSUNNY   77  58  51 W20       30.06S
6HR MIN TEMP:  65; 6HR MAX TEMP:  77;

WASHINGTON +   MOSUNNY   75  53  46 W12G18    30.06R
6HR MIN TEMP:  63; 6HR MAX TEMP:  76;


$$

INZ062-063-066-070>080-084-089>092-241900-
SOUTH CENTRAL AND SOUTHEAST INDIANA

CITY           SKY/WX    TMP DP  RH WIND       PRES   REMARKS
BEDFORD +      MOSUNNY   75  54  46 NW10G16   30.04R
BLOOMINGTON    MOSUNNY   76  54  46 W15       30.04S
6HR MIN TEMP:  64; 6HR MAX TEMP:  76;

MADISON *+     PTSUNNY   77  55  47 W9        30.05S
NORTH VERNON + MOSUNNY   73  59  60 W7        30.04R

$$





USA.gov is the U.S. government's official web portal to all federal, state and local government web resources and services.